| time (UTC) | temp C | wind direction | speed KPH | gust KPH | rain 1hr cm | rain 24hr cm | rain mn cm | humidity % | barometer mb |
| 20260906221620 | 38 | 145 | 3.2 | 3.2 | 0.00 | 0.00 | 0.00 | 34 | 1010.7 |
| 20260906221115 | 38 | 160 | 4.8 | 4.8 | 0.00 | 0.00 | 0.00 | 32 | 1010.8 |
| 20260906220610 | 38 | 124 | 1.6 | 3.2 | 0.00 | 0.00 | 0.00 | 33 | 1010.8 |
| 20260906220106 | 38 | 151 | 3.2 | 4.8 | 0.00 | 0.00 | 0.00 | 32 | 1011.1 |
| 20260906215604 | 38 | 185 | 4.8 | 4.8 | 0.00 | 0.00 | 0.00 | 34 | 1011.0 |
| 20260906215104 | 38 | 138 | 4.8 | 8.0 | 0.00 | 0.00 | 0.00 | 34 | 1011.0 |
| 20260906214602 | 37 | 138 | 6.4 | 9.7 | 0.00 | 0.00 | 0.00 | 35 | 1011.1 |
| 20260906214057 | 37 | 140 | 3.2 | 3.2 | 0.00 | 0.00 | 0.00 | 37 | 1011.2 |
| 20260906213556 | 38 | 152 | 4.8 | 8.0 | 0.00 | 0.00 | 0.00 | 36 | 1011.0 |
| 20260906213051 | 40 | 146 | 6.4 | 9.7 | 0.00 | 0.00 | 0.00 | 33 | 1011.0 |
| 20260906212543 | 40 | 134 | 3.2 | 3.2 | 0.00 | 0.00 | 0.00 | 34 | 1011.2 |
| 20260906212039 | 39 | 188 | 6.4 | 8.0 | 0.00 | 0.00 | 0.00 | 34 | 1011.3 |
| 20260906211538 | 38 | 162 | 1.6 | 1.6 | 0.00 | 0.00 | 0.00 | 35 | 1011.4 |
| 20260906211035 | 38 | 133 | 3.2 | 3.2 | 0.00 | 0.00 | 0.00 | 36 | 1011.3 |
| 20260906210530 | 38 | 129 | 3.2 | 3.2 | 0.00 | 0.00 | 0.00 | 36 | 1011.7 |
| 20260906210029 | 37 | 160 | 4.8 | 8.0 | 0.00 | 0.00 | 0.00 | 37 | 1011.7 |
| 20260906205525 | 36 | 105 | 1.6 | 3.2 | 0.00 | 0.00 | 0.00 | 38 | 1011.5 |
| 20260906205021 | 37 | 132 | 3.2 | 3.2 | 0.00 | 0.00 | 0.00 | 38 | 1011.6 |
| 20260906204520 | 37 | 114 | 6.4 | 8.0 | 0.00 | 0.00 | 0.00 | 37 | 1011.4 |
| 20260906204015 | 38 | 127 | 4.8 | 8.0 | 0.00 | 0.00 | 0.00 | 37 | 1011.6 |
| 20260906203510 | 38 | 74 | 3.2 | 4.8 | 0.00 | 0.00 | 0.00 | 36 | 1011.4 |
| 20260906203010 | 38 | 110 | 4.8 | 9.7 | 0.00 | 0.00 | 0.00 | 35 | 1011.7 |
| 20260906202506 | 39 | 81 | 3.2 | 3.2 | 0.00 | 0.00 | 0.00 | 35 | 1011.8 |
| 20260906202002 | 38 | 89 | 3.2 | 3.2 | 0.00 | 0.00 | 0.00 | 36 | 1011.8 |
| 20260906201456 | 38 | 181 | 3.2 | 4.8 | 0.00 | 0.00 | 0.00 | 35 | 1011.9 |
| 20260906200955 | 38 | 108 | 1.6 | 1.6 | 0.00 | 0.00 | 0.00 | 37 | 1012.1 |
| 20260906200452 | 37 | 94 | 4.8 | 8.0 | 0.00 | 0.00 | 0.00 | 38 | 1012.2 |
| 20260906195952 | 38 | 128 | 3.2 | 3.2 | 0.00 | 0.00 | 0.00 | 36 | 1012.3 |
| 20260906195448 | 38 | 190 | 6.4 | 9.7 | 0.00 | 0.00 | 0.00 | 36 | 1012.0 |
| 20260906194944 | 38 | 102 | 8.0 | 9.7 | 0.00 | 0.00 | 0.00 | 36 | 1012.1 |
| 20260906194440 | 38 | 66 | 17.7 | 20.9 | 0.00 | 0.00 | 0.00 | 37 | 1012.3 |
| 20260906193935 | 37 | 129 | 1.6 | 1.6 | 0.00 | 0.00 | 0.00 | 38 | 1012.3 |
| 20260906193430 | 38 | 151 | 3.2 | 3.2 | 0.00 | 0.00 | 0.00 | 37 | 1012.3 |
| 20260906192925 | 38 | 176 | 1.6 | 1.6 | 0.00 | 0.00 | 0.00 | 38 | 1012.2 |
| 20260906192420 | 38 | 149 | 3.2 | 4.8 | 0.00 | 0.00 | 0.00 | 39 | 1012.4 |
| 20260906191919 | 37 | 158 | 1.6 | 3.2 | 0.00 | 0.00 | 0.00 | 40 | 1012.4 |
| 20260906191415 | 37 | 350 | 8.0 | 9.7 | 0.00 | 0.00 | 0.00 | 40 | 1012.5 |
| 20260906190913 | 38 | 129 | 1.6 | 3.2 | 0.00 | 0.00 | 0.00 | 39 | 1012.8 |
| 20260906190413 | 38 | 149 | 4.8 | 4.8 | 0.00 | 0.00 | 0.00 | 38 | 1012.5 |
| 20260906185908 | 37 | 152 | 6.4 | 12.9 | 0.00 | 0.00 | 0.00 | 40 | 1012.7 |
| 20260906185407 | 36 | 128 | 1.6 | 1.6 | 0.00 | 0.00 | 0.00 | 44 | 1012.6 |
| 20260906184906 | 36 | 176 | 4.8 | 8.0 | 0.00 | 0.00 | 0.00 | 42 | 1012.9 |
| 20260906184401 | 37 | 117 | 4.8 | 4.8 | 0.00 | 0.00 | 0.00 | 41 | 1012.6 |
| 20260906183857 | 36 | 170 | 4.8 | 8.0 | 0.00 | 0.00 | 0.00 | 42 | 1012.9 |
| 20260906183348 | 36 | 123 | 4.8 | 8.0 | 0.00 | 0.00 | 0.00 | 42 | 1012.9 |
| 20260906182847 | 37 | 95 | 1.6 | 1.6 | 0.00 | 0.00 | 0.00 | 40 | 1013.2 |
| 20260906182343 | 38 | 96 | 8.0 | 11.3 | 0.00 | 0.00 | 0.00 | 40 | 1013.2 |
| 20260906181838 | 37 | 31 | 4.8 | 4.8 | 0.00 | 0.00 | 0.00 | 40 | 1013.0 |
| 20260906181335 | 36 | 144 | 3.2 | 4.8 | 0.00 | 0.00 | 0.00 | 42 | 1013.2 |
| 20260906180835 | 37 | 141 | 4.8 | 8.0 | 0.00 | 0.00 | 0.00 | 41 | 1013.4 |
| 20260906180330 | 37 | 188 | 4.8 | 4.8 | 0.00 | 0.00 | 0.00 | 41 | 1013.8 |
| 20260906175827 | 37 | 188 | 8.0 | 11.3 | 0.00 | 0.00 | 0.00 | 41 | 1013.3 |
| 20260906175323 | 37 | 163 | 6.4 | 11.3 | 0.00 | 0.00 | 0.00 | 41 | 1013.6 |
| 20260906174821 | 36 | 128 | 1.6 | 1.6 | 0.00 | 0.00 | 0.00 | 42 | 1013.7 |
| 20260906174316 | 35 | 71 | 3.2 | 3.2 | 0.00 | 0.00 | 0.00 | 46 | 1013.8 |
| 20260906173811 | 35 | 143 | 3.2 | 3.2 | 0.00 | 0.00 | 0.00 | 46 | 1013.8 |
| 20260906173307 | 36 | 73 | 3.2 | 4.8 | 0.00 | 0.00 | 0.00 | 45 | 1014.0 |
| 20260906172805 | 35 | 114 | 1.6 | 1.6 | 0.00 | 0.00 | 0.00 | 47 | 1014.0 |
| 20260906172305 | 35 | 50 | 9.7 | 11.3 | 0.00 | 0.00 | 0.00 | 46 | 1014.2 |
| 20260906171756 | 35 | 67 | 3.2 | 3.2 | 0.00 | 0.00 | 0.00 | 48 | 1014.1 |
| 20260906171251 | 35 | 75 | 4.8 | 9.7 | 0.00 | 0.00 | 0.00 | 47 | 1014.2 |
| 20260906170747 | 36 | 46 | 3.2 | 8.0 | 0.00 | 0.00 | 0.00 | 45 | 1014.2 |
| 20260906170243 | 36 | 128 | 1.6 | 1.6 | 0.00 | 0.00 | 0.00 | 44 | 1014.3 |
| 20260906165738 | 36 | 121 | 1.6 | 3.2 | 0.00 | 0.00 | 0.00 | 45 | 1014.4 |
| 20260906165238 | 36 | 55 | 3.2 | 4.8 | 0.00 | 0.00 | 0.00 | 44 | 1014.3 |
| 20260906164738 | 36 | 106 | 4.8 | 8.0 | 0.00 | 0.00 | 0.00 | 45 | 1014.6 |
| 20260906164232 | 35 | 142 | 3.2 | 4.8 | 0.00 | 0.00 | 0.00 | 46 | 1014.5 |
| 20260906163729 | 35 | 62 | 8.0 | 9.7 | 0.00 | 0.00 | 0.00 | 46 | 1014.6 |
| 20260906163225 | 35 | 88 | 3.2 | 3.2 | 0.00 | 0.00 | 0.00 | 48 | 1014.5 |
| 20260906162721 | 33 | 102 | 0.0 | 1.6 | 0.00 | 0.00 | 0.00 | 52 | 1014.7 |
| 20260906162216 | 33 | 103 | 0.0 | 0.0 | 0.00 | 0.00 | 0.00 | 54 | 1014.4 |
| 20260906161711 | 32 | 48 | 3.2 | 3.2 | 0.00 | 0.00 | 0.00 | 55 | 1014.5 |
| 20260906161210 | 32 | 339 | 4.8 | 4.8 | 0.00 | 0.00 | 0.00 | 58 | 1014.5 |
| 20260906160709 | 31 | 325 | 8.0 | 9.7 | 0.00 | 0.00 | 0.00 | 59 | 1014.5 |
| 20260906160209 | 31 | 289 | 4.8 | 8.0 | 0.00 | 0.00 | 0.00 | 60 | 1014.5 |
| 20260906155706 | 31 | 300 | 8.0 | 9.7 | 0.00 | 0.00 | 0.00 | 59 | 1014.6 |
| 20260906155201 | 31 | 322 | 6.4 | 8.0 | 0.00 | 0.00 | 0.00 | 58 | 1014.6 |
| 20260906154656 | 31 | 227 | 3.2 | 3.2 | 0.00 | 0.00 | 0.00 | 59 | 1014.5 |
| 20260906154151 | 31 | 297 | 6.4 | 9.7 | 0.00 | 0.00 | 0.00 | 59 | 1014.5 |
| 20260906153649 | 31 | 263 | 8.0 | 9.7 | 0.00 | 0.00 | 0.00 | 60 | 1014.5 |
| 20260906153145 | 31 | 275 | 8.0 | 9.7 | 0.00 | 0.00 | 0.00 | 60 | 1014.5 |
| 20260906152645 | 31 | 342 | 4.8 | 4.8 | 0.00 | 0.00 | 0.00 | 60 | 1014.6 |
| 20260906152139 | 31 | 253 | 4.8 | 4.8 | 0.00 | 0.00 | 0.00 | 61 | 1014.5 |
| 20260906151634 | 31 | 138 | 1.6 | 1.6 | 0.00 | 0.00 | 0.00 | 61 | 1014.6 |
| 20260906151130 | 30 | 260 | 6.4 | 8.0 | 0.00 | 0.00 | 0.00 | 61 | 1014.3 |
| 20260906150625 | 31 | 101 | 3.2 | 3.2 | 0.00 | 0.00 | 0.00 | 60 | 1014.4 |
| 20260906150120 | 31 | 195 | 3.2 | 3.2 | 0.00 | 0.00 | 0.00 | 61 | 1014.2 |
| 20260906145619 | 30 | 169 | 4.8 | 4.8 | 0.00 | 0.00 | 0.00 | 61 | 1014.3 |
| 20260906145113 | 30 | 194 | 4.8 | 4.8 | 0.00 | 0.00 | 0.00 | 61 | 1014.4 |
| 20260906144608 | 31 | 126 | 0.0 | 1.6 | 0.00 | 0.00 | 0.00 | 60 | 1014.6 |
| 20260906144103 | 30 | 160 | 1.6 | 1.6 | 0.00 | 0.00 | 0.00 | 62 | 1014.3 |
| 20260906143558 | 30 | 142 | 1.6 | 1.6 | 0.00 | 0.00 | 0.00 | 62 | 1014.7 |
| 20260906143055 | 31 | 86 | 1.6 | 1.6 | 0.00 | 0.00 | 0.00 | 60 | 1014.5 |
| 20260906142554 | 31 | 149 | 3.2 | 3.2 | 0.00 | 0.00 | 0.00 | 61 | 1014.5 |
| 20260906142050 | 31 | 146 | 1.6 | 3.2 | 0.00 | 0.00 | 0.00 | 61 | 1014.4 |
| 20260906141548 | 31 | 126 | 0.0 | 1.6 | 0.00 | 0.00 | 0.00 | 61 | 1014.5 |
| 20260906141044 | 31 | 124 | 0.0 | 1.6 | 0.00 | 0.00 | 0.00 | 62 | 1014.2 |
| 20260906140542 | 30 | 118 | 0.0 | 0.0 | 0.00 | 0.00 | 0.00 | 63 | 1014.5 |
| 20260906140037 | 30 | 113 | 1.6 | 1.6 | 0.00 | 0.00 | 0.00 | 64 | 1014.3 |
| 20260906135534 | 30 | 126 | 1.6 | 3.2 | 0.00 | 0.00 | 0.00 | 64 | 1014.2 |
| 20260906135031 | 30 | 120 | 1.6 | 1.6 | 0.00 | 0.00 | 0.00 | 65 | 1014.3 |
| 20260906134525 | 29 | 123 | 0.0 | 0.0 | 0.00 | 0.00 | 0.00 | 66 | 1014.1 |
| 20260906134020 | 28 | 124 | 1.6 | 3.2 | 0.00 | 0.00 | 0.00 | 67 | 1014.2 |
| 20260906133516 | 28 | 137 | 1.6 | 1.6 | 0.00 | 0.00 | 0.00 | 68 | 1014.0 |
| 20260906133012 | 28 | 112 | 1.6 | 1.6 | 0.00 | 0.00 | 0.00 | 70 | 1014.0 |
| 20260906132507 | 27 | 115 | 0.0 | 0.0 | 0.00 | 0.00 | 0.00 | 71 | 1014.2 |
| 20260906132002 | 27 | 104 | 1.6 | 3.2 | 0.00 | 0.00 | 0.00 | 71 | 1014.1 |
| 20260906131457 | 26 | 110 | 0.0 | 0.0 | 0.00 | 0.00 | 0.00 | 74 | 1013.9 |
| 20260906130953 | 26 | 101 | 1.6 | 1.6 | 0.00 | 0.00 | 0.00 | 76 | 1014.1 |
| 20260906130451 | 25 | 96 | 1.6 | 1.6 | 0.00 | 0.00 | 0.00 | 77 | 1014.2 |
| 20260906125946 | 25 | 93 | 0.0 | 0.0 | 0.00 | 0.00 | 0.00 | 78 | 1014.2 |
| 20260906125443 | 25 | 94 | 0.0 | 0.0 | 0.00 | 0.00 | 0.00 | 78 | 1014.0 |
| 20260906124938 | 25 | 92 | 1.6 | 1.6 | 0.00 | 0.00 | 0.00 | 79 | 1014.0 |
| 20260906124434 | 24 | 131 | 0.0 | 0.0 | 0.00 | 0.00 | 0.00 | 80 | 1013.8 |
| 20260906123933 | 24 | 131 | 1.6 | 1.6 | 0.00 | 0.00 | 0.00 | 80 | 1013.7 |
| 20260906123432 | 24 | 131 | 1.6 | 1.6 | 0.00 | 0.00 | 0.00 | 81 | 1013.9 |
| 20260906122927 | 24 | 131 | 0.0 | 0.0 | 0.00 | 0.00 | 0.00 | 80 | 1013.7 |
| 20260906122422 | 24 | 131 | 0.0 | 0.0 | 0.00 | 0.00 | 0.00 | 80 | 1013.6 |
| 20260906121919 | 24 | 131 | 0.0 | 0.0 | 0.00 | 0.00 | 0.00 | 80 | 1013.3 |
| 20260906121415 | 24 | 132 | 0.0 | 1.6 | 0.00 | 0.00 | 0.00 | 80 | 1013.6 |
| 20260906120911 | 24 | 132 | 0.0 | 0.0 | 0.00 | 0.00 | 0.00 | 80 | 1013.4 |
| 20260906120406 | 24 | 132 | 1.6 | 1.6 | 0.00 | 0.00 | 0.00 | 80 | 1013.4 |
| 20260906115902 | 24 | 117 | 1.6 | 1.6 | 0.00 | 0.00 | 0.00 | 80 | 1013.4 |
| 20260906115358 | 23 | 113 | 0.0 | 0.0 | 0.00 | 0.00 | 0.00 | 80 | 1013.2 |
| 20260906114857 | 23 | 113 | 0.0 | 0.0 | 0.00 | 0.00 | 0.00 | 80 | 1013.4 |
| 20260906114352 | 24 | 113 | 0.0 | 1.6 | 0.00 | 0.00 | 0.00 | 79 | 1013.2 |
| 20260906113848 | 24 | 113 | 1.6 | 1.6 | 0.00 | 0.00 | 0.00 | 78 | 1013.3 |
| 20260906113346 | 25 | 112 | 0.0 | 1.6 | 0.00 | 0.00 | 0.00 | 78 | 1013.4 |
| 20260906112842 | 25 | 110 | 0.0 | 0.0 | 0.00 | 0.00 | 0.00 | 78 | 1012.8 |
| 20260906112337 | 25 | 110 | 0.0 | 0.0 | 0.00 | 0.00 | 0.00 | 78 | 1012.9 |
| 20260906111831 | 25 | 111 | 1.6 | 1.6 | 0.00 | 0.00 | 0.00 | 77 | 1013.3 |
| 20260906111326 | 25 | 106 | 1.6 | 3.2 | 0.00 | 0.00 | 0.00 | 77 | 1013.2 |
| 20260906110821 | 25 | 98 | 1.6 | 1.6 | 0.00 | 0.00 | 0.00 | 77 | 1013.2 |
| 20260906110317 | 25 | 84 | 3.2 | 3.2 | 0.00 | 0.00 | 0.00 | 77 | 1013.0 |
| 20260906105815 | 25 | 82 | 3.2 | 3.2 | 0.00 | 0.00 | 0.00 | 76 | 1013.0 |
| 20260906105311 | 25 | 74 | 4.8 | 4.8 | 0.00 | 0.00 | 0.00 | 76 | 1013.0 |
| 20260906104807 | 25 | 87 | 3.2 | 3.2 | 0.00 | 0.00 | 0.00 | 75 | 1012.9 |
| 20260906104305 | 25 | 85 | 3.2 | 3.2 | 0.00 | 0.00 | 0.00 | 75 | 1013.0 |
| 20260906103804 | 25 | 81 | 3.2 | 3.2 | 0.00 | 0.00 | 0.00 | 75 | 1012.8 |
| 20260906103303 | 25 | 89 | 1.6 | 1.6 | 0.00 | 0.00 | 0.00 | 75 | 1012.6 |
| 20260906102800 | 25 | 94 | 1.6 | 1.6 | 0.00 | 0.00 | 0.00 | 76 | 1012.8 |
| 20260906102258 | 25 | 93 | 0.0 | 0.0 | 0.00 | 0.00 | 0.00 | 76 | 1012.9 |
| 20260906101754 | 25 | 95 | 1.6 | 1.6 | 0.00 | 0.00 | 0.00 | 75 | 1013.0 |
| 20260906101254 | 26 | 97 | 0.0 | 0.0 | 0.00 | 0.00 | 0.00 | 75 | 1012.8 |
| 20260906100749 | 26 | 96 | 0.0 | 0.0 | 0.00 | 0.00 | 0.00 | 74 | 1012.7 |
| 20260906100248 | 26 | 76 | 1.6 | 1.6 | 0.00 | 0.00 | 0.00 | 75 | 1012.8 |
| 20260906095744 | 26 | 129 | 1.6 | 1.6 | 0.00 | 0.00 | 0.00 | 75 | 1012.8 |
| 20260906095239 | 26 | 131 | 0.0 | 0.0 | 0.00 | 0.00 | 0.00 | 74 | 1012.9 |
| 20260906094738 | 26 | 131 | 0.0 | 0.0 | 0.00 | 0.00 | 0.00 | 74 | 1012.7 |
| 20260906094234 | 26 | 131 | 0.0 | 0.0 | 0.00 | 0.00 | 0.00 | 74 | 1012.7 |
| 20260906093730 | 26 | 131 | 0.0 | 1.6 | 0.00 | 0.00 | 0.00 | 74 | 1012.8 |
| 20260906093225 | 26 | 131 | 0.0 | 0.0 | 0.00 | 0.00 | 0.00 | 73 | 1012.7 |
| 20260906092721 | 26 | 132 | 1.6 | 1.6 | 0.00 | 0.00 | 0.00 | 73 | 1012.9 |
| 20260906092220 | 26 | 130 | 0.0 | 0.0 | 0.00 | 0.00 | 0.00 | 74 | 1012.8 |
| 20260906091716 | 26 | 130 | 0.0 | 0.0 | 0.00 | 0.00 | 0.00 | 73 | 1012.6 |
| 20260906091212 | 26 | 130 | 0.0 | 0.0 | 0.00 | 0.00 | 0.00 | 73 | 1012.6 |
| 20260906090708 | 26 | 130 | 0.0 | 1.6 | 0.00 | 0.00 | 0.00 | 72 | 1012.5 |
| 20260906090208 | 26 | 131 | 1.6 | 1.6 | 0.00 | 0.00 | 0.00 | 72 | 1012.6 |
| 20260906085707 | 27 | 130 | 0.0 | 1.6 | 0.00 | 0.00 | 0.00 | 71 | 1012.2 |
| 20260906085206 | 27 | 131 | 0.0 | 1.6 | 0.00 | 0.00 | 0.00 | 71 | 1012.4 |
| 20260906084700 | 27 | 131 | 0.0 | 1.6 | 0.00 | 0.00 | 0.00 | 71 | 1012.3 |
| 20260906084155 | 27 | 131 | 0.0 | 0.0 | 0.00 | 0.00 | 0.00 | 70 | 1012.4 |
| 20260906083650 | 27 | 131 | 0.0 | 0.0 | 0.00 | 0.00 | 0.00 | 71 | 1012.5 |
| 20260906083145 | 27 | 131 | 0.0 | 0.0 | 0.00 | 0.00 | 0.00 | 70 | 1012.3 |
| 20260906082640 | 27 | 132 | 0.0 | 1.6 | 0.00 | 0.00 | 0.00 | 69 | 1012.5 |
| 20260906082135 | 27 | 126 | 1.6 | 1.6 | 0.00 | 0.00 | 0.00 | 70 | 1012.4 |
| 20260906081626 | 27 | 123 | 0.0 | 0.0 | 0.00 | 0.00 | 0.00 | 69 | 1012.3 |
| 20260906081121 | 27 | 123 | 0.0 | 0.0 | 0.00 | 0.00 | 0.00 | 69 | 1012.5 |
| 20260906080617 | 27 | 117 | 0.0 | 1.6 | 0.00 | 0.00 | 0.00 | 69 | 1012.4 |
| 20260906080113 | 27 | 123 | 1.6 | 1.6 | 0.00 | 0.00 | 0.00 | 70 | 1012.3 |
| 20260906075607 | 27 | 121 | 1.6 | 1.6 | 0.00 | 0.00 | 0.00 | 70 | 1012.4 |
| 20260906075102 | 27 | 114 | 0.0 | 0.0 | 0.00 | 0.00 | 0.00 | 69 | 1012.3 |
| 20260906074557 | 27 | 113 | 1.6 | 1.6 | 0.00 | 0.00 | 0.00 | 69 | 1012.2 |
| 20260906074055 | 27 | 74 | 0.0 | 1.6 | 0.00 | 0.00 | 0.00 | 69 | 1012.2 |
| 20260906073550 | 27 | 71 | 0.0 | 1.6 | 0.00 | 0.00 | 0.00 | 69 | 1012.4 |
| 20260906073047 | 27 | 68 | 1.6 | 1.6 | 0.00 | 0.00 | 0.00 | 69 | 1012.3 |
| 20260906072541 | 27 | 80 | 1.6 | 1.6 | 0.00 | 0.00 | 0.00 | 69 | 1012.7 |
| 20260906072037 | 27 | 105 | 0.0 | 1.6 | 0.00 | 0.00 | 0.00 | 69 | 1012.6 |
| 20260906071533 | 27 | 113 | 0.0 | 0.0 | 0.00 | 0.00 | 0.00 | 69 | 1012.7 |
| 20260906071028 | 28 | 121 | 0.0 | 0.0 | 0.00 | 0.00 | 0.00 | 68 | 1012.3 |
| 20260906070525 | 28 | 128 | 1.6 | 1.6 | 0.00 | 0.00 | 0.00 | 67 | 1012.7 |
| 20260906070020 | 28 | 137 | 1.6 | 3.2 | 0.00 | 0.00 | 0.00 | 67 | 1012.7 |
| 20260906065519 | 28 | 135 | 0.0 | 1.6 | 0.00 | 0.00 | 0.00 | 66 | 1012.6 |
| 20260906065015 | 28 | 128 | 0.0 | 0.0 | 0.00 | 0.00 | 0.00 | 66 | 1012.8 |
| 20260906064511 | 28 | 131 | 0.0 | 1.6 | 0.00 | 0.00 | 0.00 | 66 | 1013.0 |
| 20260906064005 | 28 | 146 | 4.8 | 4.8 | 0.00 | 0.00 | 0.00 | 65 | 1012.7 |
| 20260906063501 | 28 | 134 | 0.0 | 0.0 | 0.00 | 0.00 | 0.00 | 65 | 1012.8 |
| 20260906062956 | 29 | 143 | 1.6 | 3.2 | 0.00 | 0.00 | 0.00 | 64 | 1012.6 |
| 20260906062451 | 29 | 138 | 3.2 | 4.8 | 0.00 | 0.00 | 0.00 | 64 | 1012.7 |
| 20260906061946 | 28 | 148 | 1.6 | 3.2 | 0.00 | 0.00 | 0.00 | 65 | 1012.6 |
| 20260906061442 | 29 | 137 | 1.6 | 1.6 | 0.00 | 0.00 | 0.00 | 64 | 1012.8 |
| 20260906060936 | 28 | 136 | 1.6 | 1.6 | 0.00 | 0.00 | 0.00 | 64 | 1013.2 |
| 20260906060433 | 28 | 132 | 0.0 | 0.0 | 0.00 | 0.00 | 0.00 | 64 | 1012.9 |
| 20260906055929 | 28 | 175 | 3.2 | 8.0 | 0.00 | 0.00 | 0.00 | 64 | 1013.0 |
| 20260906055425 | 28 | 173 | 3.2 | 3.2 | 0.00 | 0.00 | 0.00 | 64 | 1013.3 |
| 20260906054920 | 28 | 147 | 4.8 | 4.8 | 0.00 | 0.00 | 0.00 | 64 | 1012.9 |
| 20260906054415 | 29 | 141 | 1.6 | 3.2 | 0.00 | 0.00 | 0.00 | 63 | 1012.8 |
| 20260906053911 | 29 | 148 | 3.2 | 3.2 | 0.00 | 0.00 | 0.00 | 63 | 1013.0 |
| 20260906053407 | 29 | 147 | 4.8 | 8.0 | 0.00 | 0.00 | 0.00 | 62 | 1013.6 |
| 20260906052903 | 29 | 155 | 4.8 | 8.0 | 0.00 | 0.00 | 0.00 | 62 | 1013.4 |
| 20260906052358 | 29 | 149 | 4.8 | 8.0 | 0.00 | 0.00 | 0.00 | 61 | 1013.0 |
| 20260906051854 | 29 | 172 | 4.8 | 4.8 | 0.00 | 0.00 | 0.00 | 61 | 1013.2 |
| 20260906051349 | 30 | 148 | 1.6 | 1.6 | 0.00 | 0.00 | 0.00 | 61 | 1013.2 |
| 20260906050844 | 30 | 141 | 1.6 | 1.6 | 0.00 | 0.00 | 0.00 | 60 | 1013.4 |
| 20260906050339 | 30 | 141 | 3.2 | 3.2 | 0.00 | 0.00 | 0.00 | 60 | 1013.2 |
| 20260906045837 | 30 | 152 | 3.2 | 3.2 | 0.00 | 0.00 | 0.00 | 59 | 1013.0 |
| 20260906045326 | 30 | 172 | 4.8 | 4.8 | 0.00 | 0.00 | 0.00 | 59 | 1012.9 |
| 20260906044823 | 30 | 148 | 4.8 | 8.0 | 0.00 | 0.00 | 0.00 | 58 | 1013.3 |
| 20260906044317 | 30 | 141 | 4.8 | 8.0 | 0.00 | 0.00 | 0.00 | 58 | 1013.2 |
| 20260906043813 | 30 | 149 | 4.8 | 4.8 | 0.00 | 0.00 | 0.00 | 57 | 1013.0 |
| 20260906043309 | 30 | 160 | 3.2 | 3.2 | 0.00 | 0.00 | 0.00 | 57 | 1013.2 |
| 20260906042809 | 30 | 154 | 3.2 | 3.2 | 0.00 | 0.00 | 0.00 | 57 | 1012.8 |
| 20260906042308 | 30 | 206 | 6.4 | 11.3 | 0.00 | 0.00 | 0.00 | 57 | 1012.9 |
| 20260906041804 | 30 | 168 | 4.8 | 8.0 | 0.00 | 0.00 | 0.00 | 56 | 1013.0 |
| 20260906041259 | 30 | 173 | 6.4 | 9.7 | 0.00 | 0.00 | 0.00 | 55 | 1012.8 |
| 20260906040754 | 31 | 141 | 4.8 | 8.0 | 0.00 | 0.00 | 0.00 | 55 | 1012.7 |
| 20260906040249 | 31 | 143 | 6.4 | 11.3 | 0.00 | 0.00 | 0.00 | 55 | 1012.7 |
| 20260906035744 | 31 | 157 | 4.8 | 4.8 | 0.00 | 0.00 | 0.00 | 54 | 1012.7 |
| 20260906035240 | 31 | 175 | 9.7 | 14.5 | 0.00 | 0.00 | 0.00 | 53 | 1012.5 |
| 20260906034739 | 31 | 151 | 6.4 | 8.0 | 0.00 | 0.00 | 0.00 | 52 | 1012.8 |
| 20260906034229 | 31 | 153 | 6.4 | 9.7 | 0.00 | 0.00 | 0.00 | 52 | 1012.6 |
| 20260906033725 | 31 | 160 | 4.8 | 9.7 | 0.00 | 0.00 | 0.00 | 51 | 1012.5 |
| 20260906033224 | 31 | 144 | 4.8 | 8.0 | 0.00 | 0.00 | 0.00 | 50 | 1012.8 |
| 20260906032721 | 31 | 150 | 6.4 | 9.7 | 0.00 | 0.00 | 0.00 | 50 | 1012.6 |
| 20260906032221 | 31 | 170 | 8.0 | 9.7 | 0.00 | 0.00 | 0.00 | 50 | 1012.6 |
| 20260906031716 | 31 | 134 | 1.6 | 1.6 | 0.00 | 0.00 | 0.00 | 50 | 1012.5 |
| 20260906031211 | 31 | 133 | 0.0 | 0.0 | 0.00 | 0.00 | 0.00 | 49 | 1012.4 |
| 20260906030711 | 31 | 150 | 1.6 | 1.6 | 0.00 | 0.00 | 0.00 | 49 | 1012.2 |
| 20260906030206 | 31 | 135 | 1.6 | 1.6 | 0.00 | 0.00 | 0.00 | 48 | 1012.2 |
| 20260906025706 | 31 | 144 | 1.6 | 1.6 | 0.00 | 0.00 | 0.00 | 48 | 1012.3 |
| 20260906025201 | 31 | 127 | 0.0 | 1.6 | 0.00 | 0.00 | 0.00 | 48 | 1012.3 |
| 20260906024654 | 31 | 119 | 1.6 | 1.6 | 0.00 | 0.00 | 0.00 | 48 | 1012.3 |
| 20260906024154 | 31 | 126 | 1.6 | 1.6 | 0.00 | 0.00 | 0.00 | 47 | 1012.3 |
| 20260906023650 | 31 | 135 | 1.6 | 3.2 | 0.00 | 0.00 | 0.00 | 47 | 1012.0 |
| 20260906023150 | 31 | 130 | 1.6 | 1.6 | 0.00 | 0.00 | 0.00 | 47 | 1012.0 |
| 20260906022644 | 32 | 158 | 1.6 | 3.2 | 0.00 | 0.00 | 0.00 | 47 | 1011.9 |
| 20260906022141 | 32 | 130 | 1.6 | 1.6 | 0.00 | 0.00 | 0.00 | 47 | 1011.8 |
| 20260906021636 | 32 | 122 | 0.0 | 1.6 | 0.00 | 0.00 | 0.00 | 46 | 1011.8 |
| 20260906021134 | 32 | 127 | 1.6 | 3.2 | 0.00 | 0.00 | 0.00 | 46 | 1011.5 |
| 20260906020629 | 32 | 125 | 1.6 | 1.6 | 0.00 | 0.00 | 0.00 | 46 | 1012.0 |
| 20260906020124 | 32 | 123 | 1.6 | 1.6 | 0.00 | 0.00 | 0.00 | 46 | 1011.9 |
| 20260906015618 | 32 | 127 | 3.2 | 3.2 | 0.00 | 0.00 | 0.00 | 45 | 1011.5 |
| 20260906015111 | 33 | 135 | 3.2 | 3.2 | 0.00 | 0.00 | 0.00 | 44 | 1011.5 |
| 20260906014606 | 33 | 127 | 1.6 | 1.6 | 0.00 | 0.00 | 0.00 | 44 | 1011.6 |
| 20260906014103 | 33 | 137 | 1.6 | 3.2 | 0.00 | 0.00 | 0.00 | 44 | 1011.3 |
| 20260906013558 | 33 | 121 | 3.2 | 3.2 | 0.00 | 0.00 | 0.00 | 43 | 1011.2 |
| 20260906013053 | 33 | 126 | 3.2 | 3.2 | 0.00 | 0.00 | 0.00 | 43 | 1011.2 |
| 20260906012548 | 33 | 148 | 3.2 | 3.2 | 0.00 | 0.00 | 0.00 | 43 | 1011.2 |
| 20260906012047 | 33 | 155 | 1.6 | 3.2 | 0.00 | 0.00 | 0.00 | 43 | 1011.3 |
| 20260906011544 | 33 | 146 | 3.2 | 3.2 | 0.00 | 0.00 | 0.00 | 42 | 1011.3 |
| 20260906011043 | 34 | 158 | 3.2 | 3.2 | 0.00 | 0.00 | 0.00 | 42 | 1011.1 |
| 20260906010539 | 34 | 140 | 3.2 | 3.2 | 0.00 | 0.00 | 0.00 | 42 | 1010.8 |
| 20260906010035 | 34 | 145 | 3.2 | 3.2 | 0.00 | 0.00 | 0.00 | 41 | 1010.9 |
| 20260906005534 | 34 | 139 | 3.2 | 3.2 | 0.00 | 0.00 | 0.00 | 40 | 1011.0 |
| 20260906005033 | 34 | 139 | 1.6 | 3.2 | 0.00 | 0.00 | 0.00 | 39 | 1010.8 |
| 20260906004533 | 35 | 131 | 1.6 | 1.6 | 0.00 | 0.00 | 0.00 | 39 | 1010.9 |
| 20260906004028 | 35 | 143 | 1.6 | 3.2 | 0.00 | 0.00 | 0.00 | 38 | 1011.0 |
| 20260906003523 | 35 | 136 | 1.6 | 3.2 | 0.00 | 0.00 | 0.00 | 38 | 1010.9 |
| 20260906003019 | 35 | 167 | 6.4 | 8.0 | 0.00 | 0.00 | 0.00 | 38 | 1010.6 |
| 20260906002513 | 35 | 169 | 4.8 | 4.8 | 0.00 | 0.00 | 0.00 | 38 | 1010.8 |
| 20260906002008 | 36 | 131 | 1.6 | 1.6 | 0.00 | 0.00 | 0.00 | 37 | 1010.9 |
| 20260906001504 | 36 | 154 | 3.2 | 4.8 | 0.00 | 0.00 | 0.00 | 37 | 1010.6 |
| 20260906000958 | 36 | 169 | 4.8 | 8.0 | 0.00 | 0.00 | 0.00 | 36 | 1010.5 |
| 20260906000455 | 36 | 149 | 3.2 | 3.2 | 0.00 | 0.00 | 0.00 | 36 | 1010.8 |
| 20260905235953 | 36 | 125 | 4.8 | 8.0 | 0.00 | 0.00 | 0.00 | 36 | 1010.8 |
| 20260905235448 | 37 | 141 | 1.6 | 1.6 | 0.00 | 0.00 | 0.00 | 36 | 1010.5 |
| 20260905234943 | 37 | 150 | 8.0 | 14.5 | 0.00 | 0.00 | 0.00 | 36 | 1010.4 |
| 20260905234438 | 37 | 142 | 4.8 | 8.0 | 0.00 | 0.00 | 0.00 | 35 | 1010.3 |
| 20260905233933 | 37 | 75 | 1.6 | 3.2 | 0.00 | 0.00 | 0.00 | 36 | 1010.5 |
| 20260905233429 | 37 | 149 | 3.2 | 4.8 | 0.00 | 0.00 | 0.00 | 35 | 1010.5 |
| 20260905232927 | 37 | 141 | 4.8 | 4.8 | 0.00 | 0.00 | 0.00 | 35 | 1010.5 |
| 20260905232423 | 37 | 146 | 1.6 | 4.8 | 0.00 | 0.00 | 0.00 | 34 | 1010.5 |
| 20260905231918 | 37 | 128 | 1.6 | 3.2 | 0.00 | 0.00 | 0.00 | 35 | 1010.5 |
| 20260905231415 | 38 | 143 | 3.2 | 3.2 | 0.00 | 0.00 | 0.00 | 34 | 1010.5 |
| 20260905230911 | 38 | 165 | 4.8 | 4.8 | 0.00 | 0.00 | 0.00 | 34 | 1010.3 |
| 20260905230408 | 38 | 137 | 3.2 | 4.8 | 0.00 | 0.00 | 0.00 | 33 | 1010.5 |
| 20260905225902 | 38 | 62 | 6.4 | 12.9 | 0.00 | 0.00 | 0.00 | 33 | 1010.3 |
| 20260905225356 | 38 | 152 | 3.2 | 4.8 | 0.00 | 0.00 | 0.00 | 33 | 1010.3 |
| 20260905224852 | 38 | 144 | 0.0 | 1.6 | 0.00 | 0.00 | 0.00 | 33 | 1010.5 |
| 20260905224347 | 38 | 23 | 8.0 | 12.9 | 0.00 | 0.00 | 0.00 | 32 | 1010.4 |
| 20260905223842 | 39 | 127 | 1.6 | 1.6 | 0.00 | 0.00 | 0.00 | 31 | 1010.3 |
| 20260905223340 | 38 | 152 | 4.8 | 12.9 | 0.00 | 0.00 | 0.00 | 32 | 1010.5 |
| 20260905222834 | 38 | 94 | 3.2 | 4.8 | 0.00 | 0.00 | 0.00 | 32 | 1010.3 |
| 20260905222333 | 38 | 174 | 4.8 | 8.0 | 0.00 | 0.00 | 0.00 | 33 | 1010.4 |
| 20260905221829 | 38 | 138 | 6.4 | 9.7 | 0.00 | 0.00 | 0.00 | 32 | 1010.5 |